Location: Coed Ely
(51.5661°N, 3.4150°W)
Time: 03:05:56
(UTC+00:00)

NOSS 2-1 (E) - Pass Details

Date: 28 January 2021
Orbit: 434 x 1768 km, 63.3° (Epoch: 23 February)

Event Time Altitude Azimuth Distance (km) Brightness Sun altitude
Rises 18:19:12 0° 220° (SW) 2,420 7.5 -12.9°
Reaches altitude 10° 18:21:14 10° 218° (SW) 1,539 6.4 -13.2°
Maximum altitude 18:24:30 77° 133° (SE) 467 2.8 -13.7°
Enters shadow 18:26:40 22° 49° (NE) 1,088 4.3 -14.0°
